User: anonymous   Login
Location: Bellerive
(46.9237°N, 7.0223°E)
Time: 00:41:50
(UTC+00:00)
Language:

CZ-2C R/B - Orbit

View from above orbital plane
View from above orbital plane
View from above satellite
View from above satellite

Ground track
Ground track

The orbit data is extracted from the following two-line orbital elements,

1 31114U 07010B   20188.55034934 +.00000025 +00000-0 +30511-4 0  9991
2 31114 098.2593 040.1433 0059038 210.5285 149.2451 14.19324780685713
Epoch (UTC): 06 July 2020 13:12:30
Eccentricity: 0.0059038
inclination: 98.2593°
perigee height: 785 km
apogee height: 870 km
right ascension of ascending node: 40.1433°
argument of perigee: 210.5285°
revolutions per day: 14.19324780
mean anomaly at epoch: 149.2451°
orbit number at epoch: 68571

The dashed part of the orbit path shows where the satellite is in the earth's shadow,  

DLR